THY9WY LTBS-LTFM

Flight info

Callsign THY9WY
Flight time 0h 56m
Altitude 37000
Route RIVBU DCT BAGLU DCT ATGIT UT58 KFK UM855 SISPI
Aircraft B738/M-SDE2E3FGHIRWXY/LB1

Departure

Time 2026-04-15 15:08
Airport Dalaman International Airport (LTBS)

Arrival

Time 2026-04-15 16:04
Airport İstanbul Airport (LTFM)
Time Latitude Longitude Altitude Speed Heading
2026-04-15 14:53 36.71744 28.78862 11 ft 0 kts 285°
2026-04-15 15:00 36.71738 28.78888 15 ft 4 kts 285°
2026-04-15 15:01 36.71731 28.78920 12 ft 4 kts 287°
2026-04-15 15:01 36.71720 28.78947 13 ft 4 kts 334°
2026-04-15 15:01 36.71704 28.78948 15 ft 4 kts 15°
2026-04-15 15:01 36.71691 28.78943 15 ft 0 kts 15°
2026-04-15 15:03 36.71698 28.78946 15 ft 4 kts 15°
2026-04-15 15:03 36.71750 28.78964 12 ft 10 kts 15°
2026-04-15 15:03 36.71822 28.78989 11 ft 12 kts 15°
2026-04-15 15:04 36.71895 28.79045 11 ft 13 kts 77°
2026-04-15 15:04 36.71877 28.79155 11 ft 13 kts 103°
2026-04-15 15:04 36.71914 28.79243 11 ft 13 kts 22°
2026-04-15 15:04 36.71998 28.79271 11 ft 12 kts 14°
2026-04-15 15:05 36.72093 28.79303 11 ft 17 kts 15°
2026-04-15 15:05 36.72212 28.79344 11 ft 18 kts 15°
2026-04-15 15:05 36.72328 28.79385 11 ft 17 kts 15°
2026-04-15 15:05 36.72441 28.79423 11 ft 16 kts 14°
2026-04-15 15:06 36.72642 28.79520 11 ft 15 kts 64°
2026-04-15 15:06 36.72613 28.79640 11 ft 15 kts 123°
2026-04-15 15:06 36.72536 28.79670 11 ft 8 kts 198°
2026-04-15 15:07 36.72422 28.79627 11 ft 32 kts 194°
2026-04-15 15:07 36.72084 28.79512 11 ft 76 kts 195°
2026-04-15 15:07 36.71365 28.79268 12 ft 136 kts 195°
2026-04-15 15:07 36.70374 28.78948 370 ft 152 kts 196°
2026-04-15 15:08 36.69319 28.78593 933 ft 162 kts 197°
2026-04-15 15:08 36.68214 28.78214 1545 ft 166 kts 196°
2026-04-15 15:08 36.67056 28.77812 2013 ft 185 kts 195°
2026-04-15 15:08 36.65720 28.77349 2275 ft 212 kts 195°
2026-04-15 15:09 36.64219 28.76834 2463 ft 234 kts 194°
2026-04-15 15:09 36.62603 28.76283 2786 ft 248 kts 194°
2026-04-15 15:09 36.60865 28.75692 3115 ft 266 kts 194°
2026-04-15 15:09 36.59070 28.75093 3842 ft 273 kts 191°
2026-04-15 15:10 36.57203 28.75108 4764 ft 269 kts 161°
2026-04-15 15:10 36.55591 28.76240 5540 ft 269 kts 133°
2026-04-15 15:10 36.54560 28.78170 6297 ft 270 kts 110°
2026-04-15 15:10 36.54008 28.80428 6997 ft 275 kts 104°
2026-04-15 15:11 36.53523 28.82751 7708 ft 280 kts 104°
2026-04-15 15:11 36.53024 28.85112 8455 ft 284 kts 105°
2026-04-15 15:11 36.52504 28.87507 9189 ft 290 kts 105°
2026-04-15 15:11 36.51966 28.89946 9972 ft 294 kts 106°
2026-04-15 15:12 36.51668 28.92502 10418 ft 312 kts 84°
2026-04-15 15:12 36.52396 28.95082 10886 ft 325 kts 56°
2026-04-15 15:12 36.54064 28.97079 11062 ft 346 kts 28°
2026-04-15 15:12 36.56377 28.98125 11374 ft 362 kts 14°
2026-04-15 15:13 36.58840 28.98903 11943 ft 369 kts 12°
2026-04-15 15:13 36.61349 28.99662 12689 ft 372 kts 12°
2026-04-15 15:13 36.63836 29.00433 13461 ft 375 kts 12°
2026-04-15 15:13 36.66406 29.01260 14191 ft 379 kts 13°
2026-04-15 15:14 36.68922 29.02095 14936 ft 381 kts 13°
2026-04-15 15:14 36.71487 29.02964 15746 ft 381 kts 13°
2026-04-15 15:14 36.74048 29.03841 16511 ft 383 kts 13°
2026-04-15 15:14 36.76639 29.04685 17207 ft 386 kts 13°
2026-04-15 15:15 36.79236 29.05580 17922 ft 389 kts 14°
2026-04-15 15:15 36.81855 29.06506 18599 ft 392 kts 14°
2026-04-15 15:15 36.84507 29.07439 19126 ft 398 kts 14°
2026-04-15 15:15 36.87197 29.08379 19619 ft 404 kts 14°
2026-04-15 15:16 36.89930 29.09327 20141 ft 410 kts 14°
2026-04-15 15:16 36.92696 29.10284 20665 ft 415 kts 14°
2026-04-15 15:16 36.95461 29.11241 21163 ft 419 kts 14°
2026-04-15 15:16 36.98247 29.12427 21640 ft 426 kts 21°
2026-04-15 15:17 37.00979 29.13950 22129 ft 431 kts 23°
2026-04-15 15:17 37.03718 29.15520 22580 ft 436 kts 23°
2026-04-15 15:17 37.06508 29.17079 23030 ft 441 kts 22°
2026-04-15 15:17 37.09338 29.18628 23485 ft 445 kts 22°
2026-04-15 15:18 37.12196 29.20176 23948 ft 447 kts 22°
2026-04-15 15:18 37.15021 29.21703 24461 ft 448 kts 22°
2026-04-15 15:18 37.17899 29.23258 24892 ft 451 kts 22°
2026-04-15 15:18 37.20789 29.24823 25288 ft 454 kts 22°
2026-04-15 15:19 37.23706 29.26406 25588 ft 460 kts 21°
2026-04-15 15:19 37.26660 29.28011 25947 ft 463 kts 21°
2026-04-15 15:19 37.29619 29.29620 26369 ft 464 kts 21°
2026-04-15 15:19 37.32605 29.31212 26805 ft 464 kts 18°
2026-04-15 15:20 37.35725 29.32257 27165 ft 464 kts
2026-04-15 15:20 37.38917 29.32933 27531 ft 466 kts
2026-04-15 15:20 37.42133 29.33520 27872 ft 468 kts
2026-04-15 15:20 37.45365 29.34093 28209 ft 471 kts
2026-04-15 15:21 37.48613 29.34689 28535 ft 473 kts
2026-04-15 15:21 37.51868 29.35314 28972 ft 473 kts
2026-04-15 15:21 37.55119 29.35965 29382 ft 473 kts
2026-04-15 15:21 37.58326 29.36623 29756 ft 474 kts
2026-04-15 15:22 37.61585 29.37304 30191 ft 474 kts
2026-04-15 15:22 37.64829 29.37986 30609 ft 472 kts
2026-04-15 15:22 37.68067 29.38668 31016 ft 470 kts
2026-04-15 15:22 37.71290 29.39347 31443 ft 468 kts
2026-04-15 15:23 37.74492 29.40021 31892 ft 466 kts
2026-04-15 15:23 37.77697 29.40696 32224 ft 466 kts
2026-04-15 15:23 37.80897 29.41368 32531 ft 467 kts
2026-04-15 15:23 37.84107 29.42043 32860 ft 467 kts
2026-04-15 15:24 37.87312 29.42718 33252 ft 466 kts
2026-04-15 15:24 37.90504 29.43391 33615 ft 465 kts
2026-04-15 15:24 37.93654 29.44055 33949 ft 465 kts
2026-04-15 15:24 37.96840 29.44728 34256 ft 464 kts
2026-04-15 15:25 38.00028 29.45402 34535 ft 464 kts
2026-04-15 15:25 38.03217 29.46076 34806 ft 464 kts
2026-04-15 15:25 38.06404 29.46750 35074 ft 464 kts
2026-04-15 15:25 38.09587 29.47424 35342 ft 465 kts
2026-04-15 15:26 38.12786 29.48102 35545 ft 466 kts
2026-04-15 15:26 38.15990 29.48782 35809 ft 466 kts
2026-04-15 15:26 38.19193 29.49463 36116 ft 465 kts
2026-04-15 15:26 38.22381 29.50141 36407 ft 465 kts
2026-04-15 15:27 38.25576 29.50821 36648 ft 466 kts
2026-04-15 15:27 38.28777 29.51503 36876 ft 466 kts
2026-04-15 15:27 38.31989 29.52187 37036 ft 468 kts
2026-04-15 15:27 38.35214 29.52874 37120 ft 470 kts
2026-04-15 15:28 38.41661 29.54254 37110 ft 467 kts
2026-04-15 15:28 38.48006 29.55615 37128 ft 462 kts
2026-04-15 15:29 38.54333 29.56971 37115 ft 460 kts
2026-04-15 15:29 38.60632 29.58323 37135 ft 460 kts
2026-04-15 15:30 38.66999 29.59689 37150 ft 468 kts
2026-04-15 15:30 38.73463 29.61081 37135 ft 472 kts
2026-04-15 15:31 38.79957 29.62485 37124 ft 474 kts
2026-04-15 15:31 38.86462 29.63896 37128 ft 473 kts
2026-04-15 15:32 38.92952 29.65305 37129 ft 471 kts
2026-04-15 15:32 38.99404 29.66707 37119 ft 469 kts
2026-04-15 15:33 39.05834 29.68105 37124 ft 468 kts
2026-04-15 15:33 39.12215 29.69491 37128 ft 467 kts
2026-04-15 15:34 39.18629 29.70895 37119 ft 467 kts
2026-04-15 15:34 39.25046 29.72301 37136 ft 467 kts
2026-04-15 15:35 39.31459 29.73707 37119 ft 468 kts
2026-04-15 15:35 39.37885 29.75132 37121 ft 468 kts
2026-04-15 15:36 39.44325 29.76543 37126 ft 469 kts
2026-04-15 15:36 39.50726 29.77949 37112 ft 469 kts
2026-04-15 15:37 39.57149 29.79157 37119 ft 467 kts
2026-04-15 15:37 39.60378 29.79910 36427 ft 479 kts
2026-04-15 15:37 39.63662 29.80705 35676 ft 479 kts
2026-04-15 15:38 39.66941 29.81491 34932 ft 478 kts
2026-04-15 15:38 39.70218 29.82252 34214 ft 476 kts
2026-04-15 15:38 39.73481 29.82990 33415 ft 474 kts
2026-04-15 15:38 39.76724 29.83712 32628 ft 471 kts
2026-04-15 15:39 39.79947 29.84428 31874 ft 469 kts
2026-04-15 15:39 39.83148 29.85140 31123 ft 465 kts
2026-04-15 15:39 39.86327 29.85850 30392 ft 461 kts
2026-04-15 15:39 39.89488 29.86345 29576 ft 452 kts 356°
2026-04-15 15:40 39.92579 29.86188 28787 ft 452 kts 348°
2026-04-15 15:40 39.95681 29.85432 27984 ft 453 kts 340°
2026-04-15 15:40 39.98705 29.84212 27231 ft 457 kts 338°
2026-04-15 15:40 40.01741 29.82932 26467 ft 458 kts 338°
2026-04-15 15:41 40.04773 29.81648 25745 ft 459 kts 339°
2026-04-15 15:41 40.07817 29.80368 25022 ft 459 kts 339°
2026-04-15 15:41 40.10855 29.79101 24308 ft 458 kts 339°
2026-04-15 15:41 40.13881 29.77853 23616 ft 452 kts 340°
2026-04-15 15:42 40.16857 29.76633 22803 ft 445 kts 340°
2026-04-15 15:42 40.19786 29.75435 22023 ft 438 kts 340°
2026-04-15 15:42 40.22681 29.74249 21267 ft 433 kts 340°
2026-04-15 15:42 40.25540 29.73075 20520 ft 429 kts 340°
2026-04-15 15:43 40.27420 29.72302 20029 ft 426 kts 340°
2026-04-15 15:43 40.30238 29.71142 19317 ft 423 kts 340°
2026-04-15 15:43 40.33047 29.69984 18619 ft 421 kts 341°
2026-04-15 15:43 40.35829 29.68838 17852 ft 419 kts 340°
2026-04-15 15:44 40.39502 29.67322 16817 ft 415 kts 340°
2026-04-15 15:44 40.41353 29.66557 16306 ft 413 kts 340°
2026-04-15 15:44 40.44087 29.65428 15566 ft 410 kts 341°
2026-04-15 15:44 40.46801 29.64305 14839 ft 407 kts 341°
2026-04-15 15:45 40.49491 29.63191 14126 ft 404 kts 341°
2026-04-15 15:45 40.52128 29.62098 13373 ft 402 kts 341°
2026-04-15 15:45 40.54778 29.60998 12602 ft 397 kts 341°
2026-04-15 15:45 40.57402 29.59909 11851 ft 393 kts 341°
2026-04-15 15:46 40.59959 29.58848 11309 ft 374 kts 341°
2026-04-15 15:46 40.62348 29.57856 11186 ft 345 kts 341°
2026-04-15 15:46 40.64538 29.56947 11208 ft 316 kts 342°
2026-04-15 15:46 40.66551 29.56111 11227 ft 292 kts 342°
2026-04-15 15:47 40.68430 29.55335 11244 ft 280 kts 342°
2026-04-15 15:47 40.70352 29.54535 10996 ft 291 kts 342°
2026-04-15 15:47 40.72262 29.53736 10757 ft 285 kts 342°
2026-04-15 15:47 40.74123 29.52954 10513 ft 277 kts 342°
2026-04-15 15:48 40.75943 29.52189 10267 ft 272 kts 343°
2026-04-15 15:48 40.77731 29.51441 10026 ft 268 kts 343°
2026-04-15 15:48 40.79504 29.50704 9783 ft 266 kts 343°
2026-04-15 15:48 40.81265 29.49970 9530 ft 266 kts 343°
2026-04-15 15:49 40.83046 29.49226 9277 ft 270 kts 342°
2026-04-15 15:49 40.84837 29.48477 9031 ft 270 kts 342°
2026-04-15 15:49 40.86603 29.47652 8755 ft 269 kts 332°
2026-04-15 15:49 40.87971 29.46007 8494 ft 269 kts 302°
2026-04-15 15:50 40.88643 29.43722 8249 ft 268 kts 281°
2026-04-15 15:50 40.88854 29.41282 8028 ft 268 kts 276°
2026-04-15 15:50 40.88991 29.38860 7786 ft 267 kts 275°
2026-04-15 15:50 40.89119 29.36416 7543 ft 265 kts 275°
2026-04-15 15:51 40.89248 29.33995 7290 ft 263 kts 275°
2026-04-15 15:51 40.89380 29.31595 7048 ft 260 kts 275°
2026-04-15 15:51 40.89514 29.29233 6804 ft 256 kts 276°
2026-04-15 15:51 40.89648 29.26900 6556 ft 253 kts 275°
2026-04-15 15:52 40.89782 29.24591 6298 ft 252 kts 275°
2026-04-15 15:52 40.89918 29.22280 6050 ft 252 kts 275°
2026-04-15 15:52 40.90052 29.19972 5801 ft 253 kts 275°
2026-04-15 15:52 40.90190 29.17626 5564 ft 260 kts 275°
2026-04-15 15:53 40.90331 29.15224 5313 ft 261 kts 275°
2026-04-15 15:53 40.90469 29.12845 5076 ft 258 kts 275°
2026-04-15 15:53 40.90604 29.10506 5007 ft 253 kts 275°
2026-04-15 15:53 40.90736 29.08155 4975 ft 257 kts 275°
2026-04-15 15:54 40.90870 29.05805 4973 ft 255 kts 275°
2026-04-15 15:54 40.91005 29.03479 4967 ft 252 kts 275°
2026-04-15 15:54 40.91135 29.01212 4966 ft 248 kts 275°
2026-04-15 15:54 40.91306 28.98969 4814 ft 244 kts 277°
2026-04-15 15:55 40.91508 28.96753 4605 ft 242 kts 277°
2026-04-15 15:55 40.91708 28.94541 4408 ft 242 kts 277°
2026-04-15 15:55 40.91904 28.92340 4225 ft 241 kts 277°
2026-04-15 15:55 40.92100 28.90127 4053 ft 245 kts 277°
2026-04-15 15:56 40.92297 28.87876 4002 ft 245 kts 277°
2026-04-15 15:56 40.92489 28.85657 3976 ft 242 kts 276°
2026-04-15 15:56 40.92674 28.83444 3977 ft 243 kts 276°
2026-04-15 15:56 40.92882 28.81222 3972 ft 243 kts 283°
2026-04-15 15:57 40.93646 28.79278 3979 ft 240 kts 314°
2026-04-15 15:57 40.94966 28.77941 3974 ft 236 kts 328°
2026-04-15 15:57 40.96352 28.76845 3960 ft 226 kts 329°
2026-04-15 15:57 40.97770 28.76100 3962 ft 221 kts 355°
2026-04-15 15:58 40.99286 28.76197 3990 ft 219 kts
2026-04-15 15:58 41.00811 28.76190 3991 ft 220 kts 358°
2026-04-15 15:58 41.02340 28.76144 3971 ft 220 kts 358°
2026-04-15 15:58 41.03867 28.76105 3961 ft 219 kts 358°
2026-04-15 15:59 41.05372 28.76074 3959 ft 213 kts 358°
2026-04-15 15:59 41.06836 28.76045 3959 ft 208 kts 358°
2026-04-15 15:59 41.08292 28.76016 3861 ft 211 kts 358°
2026-04-15 15:59 41.09782 28.75987 3598 ft 215 kts 358°
2026-04-15 16:00 41.11268 28.75958 3316 ft 212 kts 359°
2026-04-15 16:00 41.12728 28.75930 3060 ft 207 kts 359°
2026-04-15 16:00 41.14126 28.75902 2786 ft 192 kts 360°
2026-04-15 16:00 41.15392 28.75876 2538 ft 173 kts
2026-04-15 16:01 41.16537 28.75850 2319 ft 153 kts
2026-04-15 16:01 41.17562 28.75832 2128 ft 147 kts
2026-04-15 16:01 41.18579 28.75815 1922 ft 147 kts
2026-04-15 16:01 41.19571 28.75796 1739 ft 140 kts
2026-04-15 16:02 41.20530 28.75776 1531 ft 137 kts
2026-04-15 16:02 41.21488 28.75796 1364 ft 136 kts
2026-04-15 16:02 41.22435 28.75761 1152 ft 135 kts
2026-04-15 16:02 41.23380 28.75725 965 ft 135 kts
2026-04-15 16:03 41.24321 28.75707 745 ft 136 kts
2026-04-15 16:03 41.25266 28.75680 568 ft 137 kts
2026-04-15 16:03 41.26190 28.75666 405 ft 132 kts
2026-04-15 16:03 41.27096 28.75656 331 ft 118 kts 360°
2026-04-15 16:04 41.27703 28.75631 331 ft 58 kts 359°
2026-04-15 16:04 41.28034 28.75581 332 ft 28 kts 333°
2026-04-15 16:04 41.28161 28.75450 331 ft 21 kts 290°
2026-04-15 16:04 41.28110 28.75346 333 ft 11 kts 182°
2026-04-15 16:05 41.28032 28.75348 330 ft 11 kts 179°
2026-04-15 16:05 41.27956 28.75350 329 ft 11 kts 178°
2026-04-15 16:05 41.27882 28.75353 333 ft 10 kts 178°
2026-04-15 16:05 41.27805 28.75356 332 ft 13 kts 178°
2026-04-15 16:06 41.27704 28.75358 330 ft 15 kts 178°
2026-04-15 16:06 41.27601 28.75359 332 ft 15 kts 180°
2026-04-15 16:06 41.27502 28.75362 330 ft 14 kts 179°
2026-04-15 16:06 41.27407 28.75365 332 ft 13 kts 179°
2026-04-15 16:07 41.27316 28.75368 332 ft 13 kts 178°
2026-04-15 16:07 41.27226 28.75368 333 ft 14 kts 178°
2026-04-15 16:07 41.27054 28.75279 331 ft 15 kts 225°
2026-04-15 16:08 41.26958 28.75262 331 ft 14 kts 178°
2026-04-15 16:08 41.26862 28.75264 332 ft 13 kts 179°
2026-04-15 16:08 41.26770 28.75267 329 ft 13 kts 178°
2026-04-15 16:08 41.26682 28.75270 330 ft 13 kts 178°
2026-04-15 16:09 41.26595 28.75272 329 ft 12 kts 181°
2026-04-15 16:09 41.26508 28.75272 330 ft 14 kts 179°
2026-04-15 16:09 41.26393 28.75275 330 ft 19 kts 178°
2026-04-15 16:09 41.26268 28.75268 331 ft 16 kts 209°
2026-04-15 16:10 41.26244 28.75137 333 ft 15 kts 270°
2026-04-15 16:10 41.26224 28.75009 333 ft 14 kts 224°
2026-04-15 16:10 41.26193 28.74934 329 ft 9 kts 252°
2026-04-15 16:10 41.26184 28.74897 332 ft 0 kts 250°